CLUSTER II-FM7 (SAMBA)

Last updated on Thu Nov 21 2024 00:03:26 GMT+0000 (Coordinated Universal Time)

1 26410U 00041A 24327.64101409 .00000577 00000+0 00000+0 0 9998 2 26410 141.2005 2.8114 7903569 217.9252 0.3489 0.44212012 17740
UTC large
Height (km)
Speed (km/s)
/
Latitude / Longitude
Inclination (degrees)
Orbital Period (minutes)
Azimuth
Elevation
Range (km)
Doppler Factor

Next 0 passes for location: London (51.5072 / 0.1276)

Sorry there are no passes over London.